Regional Weather Roundup
Issued by NWS

Home | Current Version | Previous Version | Graphics & Text | Print | Product List | Glossary On
Versions: 1 2 3 4 5 6 7 8 9 10 11 12 13 14 15 16 17 18 19 20 21 22 23 24 25 26 27 28 29 30 31 32 33 34 35 36 37 38 39 40 41 42 43 44 45 46 47 48 49 50
000
ASUS43 KMPX 221310
RWRMN
WEATHER ROUNDUP FOR MINNESOTA
NATIONAL WEATHER SERVICE TWIN CITIES/CHANHASSEN MN
700 AM CST WED FEB 22 2017


NOTE: "FAIR" INDICATES FEW OR NO CLOUDS BELOW 12,000 FEET WITH NO
SIGNIFICANT WEATHER AND/OR OBSTRUCTIONS TO VISIBILITY. N/A MEANS
CURRENT SKY AND/OR WEATHER CONDITIONS ARE NOT AVAILABLE.

MNZ060>063-068>070-221400-
   Twin Cities Metro

CITY           SKY/WX    TMP DP  RH WIND       PRES   REMARKS
TWIN CITIES    FAIR      38  36  92 NW6       29.61R FOG
ST PAUL        FAIR      37  37 100 NE3       29.62R
CRYSTAL        FOG       36  34  92 CALM      29.59R VSB 1/4
BLAINE         FOG       39  39 100 CALM      29.60R VSB 0
LAKEVILLE      FAIR      39  39 100 W3        29.60R
EDEN PRAIRIE   FAIR      39  36  89 N6        29.59R
SOUTH ST PAUL  FAIR      40  39  97 CALM      29.59S
LAKE ELMO      FAIR      36  36 100 CALM      29.62R FOG
$$
MNZ001>005-007-008-013>017-022>024-027-028-221400-
   Northwest Minnesota

CITY           SKY/WX    TMP DP  RH WIND       PRES   REMARKS
BEMIDJI        CLOUDY    34  34 100 N5        29.66R FOG     WCI  30
HALLOCK        MIX PCPN  34  34 100 N9        29.74S WCI  26
ROSEAU         LGT SNOW  34  28  80 N5        29.73S WCI  30
WARROAD        LGT SNOW  34  28  80 N7        29.73R WCI  28
THIEF RVR FALL LGT RAIN  33  32  96 NE10      29.69F WCI  25
CROOKSTON      MIX PCPN  32  32 100 N8        29.68F WCI  25
FOSSTON        FOG       30  30 100 NE5       29.67S VSB 1/2 WCI  25
DETROIT LAKES  MOCLDY    36  36 100 CALM      29.65F FOG
MOORHEAD       CLOUDY    34  32  93 N10       29.66F FOG     WCI  26
PARK RAPIDS    FAIR      33  30  88 CALM      29.64R FOG
MAHNOMEN       CLOUDY    33  32  99 N7        29.66S FOG     WCI  26
$$
MNZ006-009>011-018-025>026-221400-
   North Central Minnesota

CITY           SKY/WX    TMP DP  RH WIND       PRES   REMARKS
BAUDETTE       LGT SNOW  32  31  96 N7        29.71R FOG     WCI  26
FLAG ISLAND    LGT SNOW  32  30  93 NW6       29.73R WCI  26
INTL FALLS     CLOUDY    33  30  88 N3        29.69R
WASKISH        FLURRIES  34  32  93 NE6       29.69R WCI  29
BIG FORK       CLOUDY    34  32  93 CALM      29.66R
LONGVILLE      FAIR      32  32 100 CALM      29.64S FOG
GRAND RAPIDS   FAIR      35  34  96 CALM      29.64F
CRANE LAKE     MIX PCPN  30  28  93 CALM      29.69R
ORR            CLOUDY    34  30  86 CALM      29.63S
COOK           CLOUDY    34  32  93 CALM      29.66R
WALKER         PTSUNNY   32  32  99 NW5       29.66R FOG     WCI  27
$$
MNZ012-019>021-037-221400-
   Northeast Minnesota

CITY           SKY/WX    TMP DP  RH WIND       PRES   REMARKS
DULUTH         MOCLDY    37  36  96 NE6       29.60F
ELY            CLOUDY    32  30  93 CALM      29.65R
HIBBING        CLOUDY    32  32 100 N5        29.62F WCI  27
EVELETH        CLOUDY    32  32  99 CALM      29.64F
DULUTH HARBOR  FAIR      34  34 100 CALM      29.63F FOG
TWO HARBORS    MOCLDY    37  34  87 CALM      29.61R
SILVER BAY     CLOUDY    34  34 100 CALM      29.62S
GRAND MARAIS     N/A     36  34  92 E3        29.64F
G MARAIS ARPRT CLOUDY    34  28  80 N9        29.61F WCI  26
$$
MNZ029>031-032-039>041-046>048-054>057-064-221400-
   West Central Minnesota

CITY           SKY/WX    TMP DP  RH WIND       PRES   REMARKS
FERGUS FALLS   FAIR      36  36 100 NE3       29.67S
WHEATON        FAIR      34  34 100 NW7       29.67R WCI  28
MORRIS         FAIR      36  36 100 N6        29.61S
ALEXANDRIA     FAIR      35  34  96 N3        29.63R FOG
ELBOW LAKE     FAIR      32  32 100 NW3       29.63R
WADENA         FAIR      34  34 100 N5        29.63R WCI  30
GLENWOOD       FAIR      36  36 100 NE6       29.61R FOG
APPLETON       FAIR      36  36 100 CALM      29.62R
BENSON         FAIR      36  32  87 CALM      29.62S
ORTONVILLE     FAIR      36  34  93 CALM      29.63R
MADISON        FAIR      39  39 100 W5        29.60S
WILLMAR        FAIR      37  37 100 CALM      29.61S
$$
MNZ033>034-036-042>043-049>051-058-059-221400-
   Central Minnesota

CITY           SKY/WX    TMP DP  RH WIND       PRES   REMARKS
ST CLOUD       FAIR      36  36 100 CALM      29.59F FOG
SAUK CENTRE    FAIR      33  33 100 W5        29.63R FOG     WCI  28
PAYNESVILLE    MOCLDY    35  35 100 CALM      29.60F FOG
AITKIN         FAIR      32  28  86 CALM      29.62S FOG
PINE RIVER     FAIR      34  34 100 CALM      29.68R FOG
BRAINERD       FAIR      33  33 100 N6        29.63R FOG     WCI  28
STAPLES        FAIR      34  34 100 N3        29.63R
LONG PRAIRIE   FAIR      32  32 100 W6        29.63R FOG     WCI  26
LITTLE FALLS   FAIR      32  32 100 CALM      29.61F FOG
LITCHFIELD     FAIR      37  36  93 CALM      29.59F
BUFFALO        FAIR      36  35  96 CALM      29.60F FOG
MAPLE LAKE     FAIR      37  37 100 CALM      29.60F FOG
HUTCHINSON     FAIR      37  37  99 CALM      29.60F FOG
$$
MNZ037-044-045-052-053-221400-
   East Central Minnesota

CITY           SKY/WX    TMP DP  RH WIND       PRES   REMARKS
PRINCETON      MOCLDY    36  36 100 CALM      29.60F FOG
MORA           FAIR      32  32 100 CALM      29.62F FOG
CAMBRIDGE      CLOUDY    37  37 100 CALM      29.58F FOG
RUSH CITY      FOG       36  34  93 CALM      29.60F VSB 1/4
MOOSE LAKE     FAIR      32  32 100 CALM      29.62R FOG
HINCKLEY       PTSUNNY   34  34 100 N5        29.62R FOG     WCI  30
CLOQUET        FAIR      37  36  93 CALM      29.62S
MCGREGOR       FAIR      34  34 100 CALM      29.63R
$$
MNZ071>073-080-081-089-090-097-098-221400-
   Southwest Minnesota

CITY           SKY/WX    TMP DP  RH WIND       PRES   REMARKS
MONTEVIDEO     MOCLDY    39  39 100 CALM      29.61R
GRANITE FALLS  FAIR      37  37  97 SW3       29.61R FOG
CANBY          MOCLDY    42  40  92 SW7       29.63S
MARSHALL       FAIR      37  36  96 NW8       29.61R
REDWOOD FALLS  FAIR      39  36  89 N5        29.58F
OLIVIA         FAIR      37  36  93 CALM      29.59S
PIPESTONE      FAIR      41  30  65 W7        29.60R
WINDOM         FAIR      37  34  87 SW6       29.57F
WORTHINGTON    FAIR      39  33  79 SW13      29.60S
JACKSON        FAIR      37  32  81 SW6       29.59S
TRACY          FAIR      41  37  83 W9        29.59S
SLAYTON        FAIR      39  34  82 SW6       29.59S
$$
MNZ065>067-074>077-082>085-091>093-221400-
   South Central Minnesota

CITY           SKY/WX    TMP DP  RH WIND       PRES   REMARKS
MANKATO          N/A     38  35  89 SE6       29.58F
NEW ULM        FAIR      36  36 100 CALM      29.58F
ST JAMES       FAIR      36  34  93 CALM      29.57F
FAIRMONT       FAIR      35  32  88 S9        29.59F WCI  28
GLENCOE        FAIR      37  37 100 CALM      29.59S FOG
FARIBAULT      FAIR      39  36  87 S7        29.59F
OWATONNA       FAIR      37  34  87 S6        29.59F
WASECA         FAIR      36  34  93 S3        29.60S
ALBERT LEA     FAIR      39  36  87 S5        29.59F
$$
MNZ078>079-086>088-094>096-221400-
   Southeast Minnesota

CITY           SKY/WX    TMP DP  RH WIND       PRES   REMARKS
ROCHESTER      FAIR      35  33  92 S8        29.62F WCI  29
RED WING       FAIR      39  37  93 N5        29.59S
STANTON        FAIR      40  35  83 W3        29.58R
DODGE CENTER   FAIR      37  34  87 S12       29.58F
WINONA         FAIR      43  34  70 SE3       29.62F
AUSTIN         FAIR      36  32  87 CALM      29.61F
PRESTON        FAIR      38  32  79 S10       29.63F
$$
ABBREVIATIONS USED IN REMARKS
   TC - TEMPERATURES IN CELSIUS
  WCI - WIND CHILL INDEX
   HX - HEAT INDEX
  VSB - VISIBILITY
$$




USA.gov is the U.S. government's official web portal to all federal, state and local government web resources and services.